• în România
  • Lista ţărilor
  • Pe 7 zile
  • Temperatura apei
  • Hartă satelitară
  • Meteo pe hartă
  • Widget-uri
  • user-avatar
    Intrare

    Meteo pe oră la Luanda

    Astăzi, 28 Februarie, Marţi

    Timp Temperatura Precipitaţii Vânt Presiune Umiditate
    00:00 +27°C° 0 mm 3 m/s 752 mmHg 83%
    01:00 +27°C° 0 mm 2 m/s 752 mmHg 84%
    02:00 +27°C° 0 mm 2 m/s 752 mmHg 82%
    03:00 +27°C° 0 mm 2 m/s 752 mmHg 81%
    04:00 +28°C° 0 mm 2 m/s 752 mmHg 79%
    05:00 +28°C° 0 mm 2 m/s 752 mmHg 79%
    06:00 +28°C° 0 mm 2 m/s 752 mmHg 79%
    07:00 +28°C° 0 mm 2 m/s 752 mmHg 78%
    08:00 +29°C° 0 mm 1 m/s 753 mmHg 71%
    09:00 +31°C° 0 mm 1 m/s 753 mmHg 63%
    10:00 +33°C° 0 mm 1 m/s 753 mmHg 55%
    11:00 +35°C° 0 mm 2 m/s 753 mmHg 49%
    12:00 +37°C° 0 mm 2 m/s 752 mmHg 44%
    13:00 +38°C° 0 mm 3 m/s 752 mmHg 38%
    14:00 +37°C° 0 mm 3 m/s 751 mmHg 41%
    15:00 +36°C° 0 mm 4 m/s 751 mmHg 44%
    16:00 +35°C° 0 mm 5 m/s 750 mmHg 47%
    17:00 +34°C° 0 mm 5 m/s 750 mmHg 55%
    18:00 +32°C° 0 mm 5 m/s 750 mmHg 62%
    19:00 +29°C° 0 mm 4 m/s 751 mmHg 69%
    20:00 +28°C° 0 mm 4 m/s 751 mmHg 72%
    21:00 +28°C° 0 mm 4 m/s 752 mmHg 75%
    22:00 +28°C° 0 mm 3 m/s 753 mmHg 78%
    23:00 +27°C° 0 mm 3 m/s 753 mmHg 79%

    Mâine, 1 Martie, Miercuri

    Timp Temperatura Precipitaţii Vânt Presiune Umiditate
    00:00 +27°C° 0 mm 3 m/s 753 mmHg 81%
    01:00 +27°C° 0 mm 3 m/s 753 mmHg 83%
    02:00 +27°C° 0 mm 3 m/s 753 mmHg 82%
    03:00 +27°C° 0 mm 3 m/s 752 mmHg 81%
    04:00 +27°C° 0 mm 3 m/s 752 mmHg 80%
    05:00 +27°C° 0 mm 3 m/s 753 mmHg 79%
    06:00 +27°C° 0 mm 3 m/s 753 mmHg 78%
    07:00 +27°C° 0 mm 3 m/s 754 mmHg 77%
    08:00 +28°C° 0 mm 2 m/s 754 mmHg 71%
    09:00 +30°C° 0 mm 2 m/s 754 mmHg 65%
    10:00 +31°C° 0 mm 2 m/s 754 mmHg 59%
    11:00 +34°C° 0 mm 2 m/s 754 mmHg 52%
    12:00 +36°C° 0 mm 3 m/s 753 mmHg 45%
    13:00 +37°C° 0 mm 3 m/s 752 mmHg 37%
    14:00 +37°C° 0 mm 4 m/s 752 mmHg 40%
    15:00 +36°C° 0 mm 4 m/s 751 mmHg 44%
    16:00 +35°C° 0 mm 5 m/s 751 mmHg 47%
    17:00 +33°C° 0 mm 5 m/s 751 mmHg 54%
    18:00 +30°C° 0 mm 5 m/s 751 mmHg 62%
    19:00 +28°C° 0 mm 4 m/s 752 mmHg 70%
    20:00 +28°C° 0 mm 4 m/s 752 mmHg 73%
    21:00 +27°C° 0 mm 4 m/s 753 mmHg 76%
    22:00 +27°C° 0 mm 3 m/s 754 mmHg 80%
    23:00 +26°C° 0 mm 3 m/s 754 mmHg 81%

    Poimâine, 2 Martie, Joi

    Timp Temperatura Precipitaţii Vânt Presiune Umiditate
    00:00 +26°C° 0 mm 3 m/s 754 mmHg 83%
    01:00 +26°C° 0 mm 3 m/s 753 mmHg 84%
    02:00 +26°C° 0 mm 3 m/s 753 mmHg 85%
    03:00 +25°C° 0 mm 2 m/s 753 mmHg 85%
    04:00 +25°C° 0 mm 2 m/s 752 mmHg 86%
    05:00 +25°C° 0 mm 2 m/s 752 mmHg 85%
    06:00 +25°C° 0 mm 3 m/s 753 mmHg 85%
    07:00 +25°C° 0 mm 3 m/s 753 mmHg 84%
    08:00 +27°C° 0 mm 2 m/s 753 mmHg 76%
    09:00 +29°C° 0 mm 1 m/s 754 mmHg 68%
    10:00 +30°C° 0 mm 1 m/s 754 mmHg 60%
    11:00 +32°C° 0 mm 1 m/s 754 mmHg 52%
    12:00 +35°C° 0 mm 2 m/s 753 mmHg 45%
    13:00 +37°C° 0 mm 2 m/s 752 mmHg 38%
    14:00 +36°C° 0 mm 3 m/s 751 mmHg 40%
    15:00 +36°C° 0 mm 4 m/s 751 mmHg 41%
    16:00 +35°C° 0 mm 5 m/s 750 mmHg 43%
    17:00 +33°C° 0 mm 4 m/s 751 mmHg 52%
    18:00 +30°C° 0 mm 4 m/s 751 mmHg 61%
    19:00 +28°C° 0 mm 4 m/s 752 mmHg 71%
    20:00 +27°C° 0 mm 3 m/s 752 mmHg 74%
    21:00 +27°C° 0 mm 3 m/s 753 mmHg 77%
    22:00 +26°C° 0 mm 2 m/s 754 mmHg 80%
    23:00 +26°C° 0 mm 2 m/s 753 mmHg 82%

    3 Martie, Vineri

    Timp Temperatura Precipitaţii Vânt Presiune Umiditate
    00:00 +25°C° 0 mm 2 m/s 753 mmHg 84%
    01:00 +25°C° 0 mm 2 m/s 753 mmHg 86%
    02:00 +25°C° 0 mm 2 m/s 753 mmHg 86%
    03:00 +25°C° 0 mm 2 m/s 752 mmHg 86%
    04:00 +25°C° 0 mm 2 m/s 752 mmHg 86%
    05:00 +25°C° 0 mm 2 m/s 752 mmHg 86%
    06:00 +25°C° 0 mm 2 m/s 752 mmHg 85%
    07:00 +25°C° 0 mm 3 m/s 753 mmHg 85%
    08:00 +27°C° 0 mm 2 m/s 753 mmHg 73%
    09:00 +30°C° 0 mm 2 m/s 753 mmHg 62%
    10:00 +32°C° 0 mm 2 m/s 753 mmHg 50%
    11:00 +35°C° 0 mm 2 m/s 752 mmHg 44%
    12:00 +37°C° 0 mm 3 m/s 752 mmHg 38%
    13:00 +38°C° 0 mm 4 m/s 751 mmHg 32%
    14:00 +38°C° 0 mm 4 m/s 750 mmHg 36%
    15:00 +37°C° 0 mm 5 m/s 750 mmHg 39%
    16:00 +36°C° 0 mm 5 m/s 749 mmHg 42%
    17:00 +34°C° 0 mm 5 m/s 750 mmHg 51%
    18:00 +30°C° 0 mm 5 m/s 750 mmHg 60%
    19:00 +28°C° 0 mm 4 m/s 751 mmHg 69%
    20:00 +28°C° 0 mm 4 m/s 751 mmHg 72%
    21:00 +27°C° 0 mm 3 m/s 752 mmHg 74%
    22:00 +27°C° 0 mm 3 m/s 753 mmHg 77%
    23:00 +26°C° 0 mm 3 m/s 752 mmHg 79%

    4 Martie, Sâmbătă

    Timp Temperatura Precipitaţii Vânt Presiune Umiditate
    00:00 +26°C° 0 mm 3 m/s 752 mmHg 81%
    01:00 +26°C° 0 mm 3 m/s 752 mmHg 82%
    02:00 +26°C° 0 mm 3 m/s 751 mmHg 83%
    03:00 +25°C° 0 mm 2 m/s 751 mmHg 84%
    04:00 +25°C° 0 mm 2 m/s 751 mmHg 84%
    05:00 +25°C° 0 mm 2 m/s 751 mmHg 83%
    06:00 +26°C° 0 mm 2 m/s 752 mmHg 82%
    07:00 +26°C° 0 mm 2 m/s 752 mmHg 81%
    08:00 +28°C° 0 mm 1 m/s 752 mmHg 73%
    09:00 +29°C° 0 mm 1 m/s 753 mmHg 65%
    10:00 +31°C° 0 mm 1 m/s 753 mmHg 57%
    11:00 +33°C° 0 mm 1 m/s 752 mmHg 51%
    12:00 +35°C° 0 mm 2 m/s 752 mmHg 44%
    13:00 +37°C° 0 mm 3 m/s 751 mmHg 38%
    14:00 +36°C° 0 mm 3 m/s 751 mmHg 41%
    15:00 +35°C° 0 mm 4 m/s 750 mmHg 45%
    16:00 +35°C° 0 mm 5 m/s 749 mmHg 49%
    17:00 +33°C° 0 mm 4 m/s 750 mmHg 56%
    18:00 +30°C° 0 mm 4 m/s 750 mmHg 63%
    19:00 +28°C° 0 mm 4 m/s 751 mmHg 70%
    20:00 +27°C° 0 mm 3 m/s 751 mmHg 74%
    21:00 +27°C° 0 mm 3 m/s 752 mmHg 77%
    22:00 +26°C° 0 mm 3 m/s 752 mmHg 81%
    23:00 +26°C° 0 mm 3 m/s 752 mmHg 81%

    5 Martie, Duminică

    Timp Temperatura Precipitaţii Vânt Presiune Umiditate
    00:00 +26°C° 0 mm 3 m/s 752 mmHg 82%
    01:00 +26°C° 0 mm 2 m/s 752 mmHg 83%
    02:00 +25°C° 0 mm 3 m/s 752 mmHg 84%
    03:00 +25°C° 0 mm 3 m/s 751 mmHg 86%
    04:00 +25°C° 0 mm 3 m/s 751 mmHg 87%
    05:00 +25°C° 0 mm 3 m/s 751 mmHg 86%
    06:00 +25°C° 0 mm 3 m/s 752 mmHg 86%
    07:00 +25°C° 0 mm 3 m/s 752 mmHg 85%
    08:00 +28°C° 0 mm 3 m/s 752 mmHg 72%
    09:00 +31°C° 0 mm 2 m/s 752 mmHg 58%
    10:00 +34°C° 0 mm 1 m/s 752 mmHg 45%
    11:00 +36°C° 0 mm 2 m/s 752 mmHg 41%
    12:00 +37°C° 0 mm 3 m/s 751 mmHg 37%
    13:00 +39°C° 0 mm 3 m/s 750 mmHg 33%
    14:00 +38°C° 0 mm 4 m/s 750 mmHg 37%
    15:00 +37°C° 0 mm 5 m/s 749 mmHg 41%
    16:00 +36°C° 0 mm 6 m/s 749 mmHg 46%
    17:00 +33°C° 0 mm 5 m/s 749 mmHg 54%
    18:00 +30°C° 0 mm 5 m/s 750 mmHg 62%
    19:00 +28°C° 0 mm 5 m/s 750 mmHg 71%
    20:00 +28°C° 0 mm 4 m/s 751 mmHg 75%
    21:00 +27°C° 0 mm 4 m/s 751 mmHg 79%
    22:00 +26°C° 0 mm 4 m/s 752 mmHg 83%
    23:00 +26°C° 0 mm 3 m/s 752 mmHg 85%
    Arată mai mult